Location: Atherton
(17.2661°S, 145.4859°E)
Time: 22:10:35
(UTC+10:00)

ARIANE 6 FM1 Upper Stage - Pass Details

Date: 21 May 2025
Orbit: 531 x 610 km, 62.0° (Epoch: 15 June)

Event Time Altitude Azimuth Distance (km) Brightness Sun altitude
Rises 18:49:38 0° 238° (WSW) 2,754 6.8 -13.8°
Reaches altitude 10° 18:53:15 10° 270° (W) 1,829 6.5 -14.6°
Maximum altitude 18:54:44 12° 291° (WNW) 1,710 6.5 -15.0°
Drops below altitude 10° 18:56:12 10° 312° (NW) 1,806 6.3 -15.3°
Sets 18:59:43 0° 345° (NNW) 2,672 6.6 -16.1°
